Regional Weather Roundup
Issued by NWS

Home | Current Version | Previous Version | Text Only | Print | Product List | Glossary Off
Versions: 1 2 3 4 5 6 7 8 9 10 11 12 13 14 15 16 17 18 19 20 21 22 23 24 25 26 27 28 29 30 31 32 33 34 35 36 37 38 39 40 41 42 43 44 45 46 47 48 49 50

836
ASUS43 KDMX 251306
RWRIA

WEATHER ROUNDUP FOR IOWA
NATIONAL WEATHER SERVICE DES MOINES IA
800 AM CDT MON SEP 25 2017

NOTE: "FAIR" INDICATES FEW OR NO CLOUDS BELOW 12,000 FEET WITH NO
SIGNIFICANT WEATHER AND/OR OBSTRUCTIONS TO VISIBILITY.

* - THESE STATIONS ARE NOT NWS STATIONS...THUS NOT UNDER NWS
QUALITY CONTROL.  THEY ALSO DO NOT REPORT WEATHER SUCH
AS PRECIPITATION OR FOG.

IAZ001>003-012>014-020>022-031>034-043>046-251400-
   NORTHWEST IOWA

CITY           SKY/WX    TMP DP  RH WIND       PRES   REMARKS
CARROLL *      FOG       66  66 100 NE7       29.95S VSB 1/4
CHEROKEE *     LGT RAIN  56  56 100 NE8       29.96F
DENISON *      CLOUDY    63  63 100 NW8       29.99R
LE MARS *      CLOUDY    55  55 100 N12       29.98R
ORANGE CITY *  LGT RAIN  55  55 100 NE8       29.98F
SHELDON *      RAIN      54  52  94 N10       29.98F
SIOUX CITY     LGT RAIN  57  57 100 N5        29.98R
SPENCER        HVY RAIN  55  54  96 N8        30.01R
STORM LAKE *   LGT RAIN  57  55  94 NE12G20   29.99R
$$

IAZ055>058-069>071-079>083-090>094-251400-
   SOUTHWEST IOWA

CITY           SKY/WX    TMP DP  RH WIND       PRES   REMARKS
ATLANTIC *     CLOUDY    64  64 100 E6        29.94S FOG
AUDUBON *      FOG       64  61  88 CALM      29.96S VSB<1/4
CLARINDA *     CLEAR     64  64 100 E5        29.96R
COUNCIL BLFS * LGT RAIN  61  61 100 N6        29.96S VSB 1/4
CRESTON *      CLEAR     64  63  94 E3        29.97R FOG
HARLAN  *      CLOUDY    63  63 100 NW7G17    30.00R
LAMONI         CLEAR     67  64  90 S3        29.96R
RED OAK *      CLOUDY    64  64 100 NE6       29.94S FOG
SHENANDOAH *   CLOUDY    64  63  94 N7        29.94S FOG
$$

IAZ047>049-059>061-072>074-084-251400-
   CENTRAL IOWA

CITY           SKY/WX    TMP DP  RH WIND       PRES   REMARKS
AMES           MOCLDY    65  65 100 CALM      29.95R FOG
ANKENY *       PTCLDY    64  63  94 CALM      29.95S
BOONE *        MOCLDY    66  64  94 N6        29.94F
CHARITON *     PTCLDY    66  63  88 S3        29.95S
DES MOINES     MOCLDY    68  64  87 S3        29.94R
GRINNELL*      PTCLDY    66  63  88 CALM      29.97R
KNOXVILLE *    CLOUDY    68  63  83 S5        29.94S
MARSHALLTOWN   PTCLDY    65  63  93 E7        29.94F FOG
NEWTON *       MOCLDY    66  64  94 SE3       29.95F
PELLA *        MOCLDY    68  64  86 CALM      29.96S
PERRY *        CLOUDY    66  66  99 N3        29.95S FOG
$$

IAZ004>006-015-016-023>025-035-036-251400-
   NORTH CENTRAL IOWA

CITY           SKY/WX    TMP DP  RH WIND       PRES   REMARKS
ALGONA *       MOCLDY    57  57 100 N9G17     29.98F
CLARION *      FOG       63  63 100 N13       29.97R VSB 1/4
ESTHERVILLE    RAIN      53  53 100 N9        30.00S FOG
FORT DODGE *   CLOUDY    63  63 100 NE9       29.97R FOG
MASON CITY     FOG       63  63 100 N10       29.98F VSB 1
FOREST CITY *  CLOUDY    61  61 100 N9        29.99R
WEBSTER CITY * FOG       64  64 100 N7G13     29.95R VSB 1/4
IOWA FALLS *     N/A     64  61  93 CALM      29.96S FOG
$$

IAZ007>011-017>019-026>030-037>042-050>054-066-251400-
   NORTHEAST IOWA

CITY           SKY/WX    TMP DP  RH WIND       PRES   REMARKS
CEDAR RAPIDS   MOSUNNY   66  63  90 SE5       29.96S
CHARLES CITY * PTCLDY    64  64 100 CALM      29.97R
CLINTON *      SUNNY    N/A N/A N/A E6        30.00R
DECORAH *      MOSUNNY   66  63  88 SE3       29.96S
DUBUQUE        SUNNY     67  61  81 S3        29.99S
MONTICELLO *   SUNNY     66  63  88 CALM      29.97S
OELWEIN *      MOSUNNY   66  64  94 SE5       29.98S
WATERLOO       MOSUNNY   67  62  84 CALM      29.95S
$$

IAZ064-065-067-068-078-251400-
   EAST CENTRAL IOWA

CITY           SKY/WX    TMP DP  RH WIND       PRES   REMARKS
DAVENPORT      SUNNY     68  63  84 SE5       30.00R
MUSCATINE *    SUNNY     66  64  94 CALM      29.98S
QUAD CITIES    SUNNY     69  62  78 E3        29.98R
$$

IAZ062-063-075>077-085>089-095>099-251400-
   SOUTHEAST IOWA

CITY           SKY/WX    TMP DP  RH WIND       PRES   REMARKS
BURLINGTON     SUNNY     69  65  86 S3        29.98R
FAIRFIELD *    SUNNY     70  63  78 S3        29.96F
FORT MADISON * SUNNY     70  66  88 CALM      29.99S
KEOKUK *       SUNNY     68  66  94 CALM      29.97F
OSKALOOSA *      N/A     67  64  89 CALM      29.96F
OTTUMWA        MOSUNNY   71  64  78 S6        29.95S
WASHINGTON *   SUNNY     66  64  94 S5        29.98S
$$

ABBREVIATIONS USED IN REMARKS
   TC - TEMPERATURES IN CELSIUS
  WCI - WIND CHILL INDEX
   HX - HEAT INDEX
  VSB - VISIBILITY
$$





USA.gov is the U.S. government's official web portal to all federal, state and local government web resources and services.